Regional Weather Roundup
Issued by NWS Burlington, VT

Home | Current Version | Previous Version | Text Only | Print | Product List | Glossary On
Versions: 1 2 3 4 5 6 7 8 9 10 11 12 13 14 15 16 17 18 19 20 21 22 23 24 25 26 27 28 29 30 31 32 33 34 35 36 37 38 39 40 41 42 43 44 45 46 47 48 49 50
000
ASUS41 KBTV 031030
RWRBTV
VERMONT REGIONAL WEATHER ROUNDUP
NATIONAL WEATHER SERVICE BURLINGTON VT
500 AM EST SAT DEC 03 2016

NOTE: "FAIR" INDICATES FEW OR NO CLOUDS BELOW 12,000 FEET WITH NO
SIGNIFICANT WEATHER AND/OR OBSTRUCTIONS TO VISIBILITY.

* THESE REPORTS ARE NOT UNDER NWS QUALITY CONTROL AND/OR DO NOT
  REPORT WEATHER SUCH AS PRECIPITATION AND FOG.

VTZ001>019-031100-
_____VERMONT_____


CITY           SKY/WX    TMP DP  RH WIND       PRES   REMARKS
BURLINGTON     CLOUDY    37  29  72 W14G23    29.84  WCI  28
MONTPELIER     LGT SNOW  32  30  92 VRB3      29.80R FOG
MORRISVILLE    CLOUDY    34  27  75 NW8G17    29.80R WCI  27
ST. JOHNSBURY*   N/A     35  30  82 MISG      29.74R
MIDDLEBURY*    LGT SNOW N/A N/A N/A CALM      29.84R
RUTLAND*       LGT RAIN  34  27  75 VRB5      29.82  WCI  30
SPRINGFIELD    CLEAR     35  25  66 NW10G20   29.80  WCI  27
NEWPORT*       CLOUDY    32  30  93 NW6       29.78R WCI  26
BENNINGTON     CLOUDY    36  25  64 W10       29.84  WCI  28
SUTTON*          N/A     30 N/A N/A MISG        N/A
ISLAND POND*     N/A     32 N/A N/A NW8         N/A  WCI  25
GALLUP MILLS*    N/A     30 N/A N/A MISG        N/A
UNION VILLAGE*   N/A     30 N/A N/A MISG        N/A
MT. MANSFIELD*   N/A     21 N/A N/A W3G33       N/A

_____LAKE CHAMPLAIN_____


CITY           SKY/WX    TMP DP  RH WIND       PRES   REMARKS
BURTON ISLAND*   N/A     37  32  81 W22         N/A  WCI  27
COLCHESTER RF*   N/A     39  32  75 NW23        N/A  WCI  29
DIAMOND ISL*     N/A     39  28  65 W12         N/A  WCI  32

$$

NYZ007-026>031-035-052-083-087-031100-
_____NORTHERN NEW YORK_____


CITY           SKY/WX    TMP DP  RH WIND       PRES   REMARKS
PLATTSBURGH    CLOUDY    36  27  69 NW10G18   29.84  WCI  28
SARANAC LAKE   LGT SNOW  29  26  89 W8        29.83R FOG     WCI  21
MASSENA        CLOUDY    35  28  75 W12G22    29.93  WCI  27
OGDENSBURG*    MOCLDY    36  28  75 NW10      29.96R WCI  28
POTSDAM*       CLOUDY    34  32  93 NW9G16    29.93S WCI  26
WATERTOWN      CLOUDY    36  27  69 NW13      29.98R WCI  27
FT DRUM        CLOUDY    34  25  69 NW9       29.95R WCI  26
ALBANY         CLOUDY    37  27  67 NW16G23   29.89R WCI  28

$$
NHZ002-005-011-031100-
_____NEW HAMPSHIRE_____


CITY           SKY/WX    TMP DP  RH WIND       PRES   REMARKS
LEBANON        CLOUDY    35  30  82 CALM      29.79
KEENE          CLOUDY    37  26  64 W8        29.80  WCI  31
MT WASHINGTON  SNOW      14  14 100 NW54G69     N/A  VSB 0   WCI -12
PLYMOUTH       FLURRIES  35  30  81 W13G22    29.75R WCI  27
WHITEFIELD     LGT SNOW  33  29  85 W6        29.74R FOG     WCI  28

$$

_____REGIONAL QUEBEC LOCATIONS_____


CITY           SKY/WX    TMP DP  RH WIND       PRES   REMARKS
MONTREAL       CLOUDY    36  30  80 W10       29.85R WCI  28
QUEBEC CITY    FLURRIES  32  28  86 NW5       29.78R WCI  27
SHERBROOKE     CLOUDY    32  32 100 NW8       29.75R FOG     WCI  25

_____REGIONAL ONTARIO LOCATIONS_____


CITY           SKY/WX    TMP DP  RH WIND       PRES   REMARKS
OTTAWA         MOCLDY    34  27  75 NW17G24   29.94R WCI  23

______KEY______
VSB  - VISIBILITY IN MILES
WCI  - WIND CHILL INDEX
HX   - HEAT INDEX
$$
NNNN




USA.gov is the U.S. government's official web portal to all federal, state and local government web resources and services.